[[{"header":{"parameterUnit":"m.s-1","parameterCategory":1,"la1":30.2991,"la2":30.254,"lo1":-89.0895,"lo2":-89.0444,"dy":0.0017,"dx":0.0017,"nx":28,"ny":28,"refTime":"2025-01-14T03:00:00:Z","depth":0,"parameterNumber":2,"parameterNumberName":"U-component_of_WINDS"},"data":[0,0,0,0,0,0,0,0,0,0,0,0,0,0,0,0,0,0,0,0,0,0,0,0,0,0,0,0,0,0,0,0,0,0,0,0,0,0,0,0,0,0,0,0,0,0,0,0,0,0,0,0,0,0,0,0,0,0,-3.0574,-3.0574,0,-3.058,-3.058,-3.058,-3.0518,-3.0516,-3.0514,-3.0513,-3.052,-3.0522,-3.0524,0,0,0,0,0,0,0,0,0,0,0,0,0,-3.051,-3.0511,-3.0574,-3.0574,-3.0574,-3.058,-3.058,-3.058,-3.0518,-3.0516,-3.0514,-3.0512,-3.052,-3.0522,-3.0524,0,0,0,0,0,0,0,0,0,0,0,0,0,-3.0529,-3.0512,-3.0574,-3.0544,-3.0541,-3.058,-3.058,-3.058,-3.0519,-3.0516,-3.0513,-3.0511,-3.0519,-3.0522,-3.0524,-3.0593,0,0,-3.0533,-3.0534,0,0,0,0,0,0,0,0,-3.0528,-3.0531,-3.0548,-3.0546,-3.0543,-3.0545,-3.056,-3.0585,-3.0519,-3.0527,-3.0513,-3.051,-3.0531,-3.0533,-3.0539,-3.0593,-3.0594,-3.0533,-3.0535,-3.0536,-3.0537,0,0,0,0,0,0,0,-3.0527,-3.0531,-3.0576,-3.0549,-3.0545,-3.053,-3.053,-3.0565,-3.0544,-3.0526,-3.0522,-3.0523,-3.0529,-3.0537,-3.0539,-3.0594,-3.0533,-3.0535,-3.0537,-3.0538,-3.0705,-3.0708,0,0,0,0,0,0,-3.0529,-3.053,-3.0576,-3.0577,-3.0529,-3.0534,-3.0534,-3.0547,-3.0543,-3.054,-3.0525,-3.052,-3.0534,-3.0536,-3.0539,-3.062,-3.0536,-3.0538,-3.054,-3.0702,-3.0706,-3.0709,0,0,0,0,0,0,-3.0528,-3.0534,-3.0576,-3.0552,-3.0556,-3.0537,-3.0554,-3.0549,-3.0557,-3.0542,-3.0538,-3.0537,-3.0532,-3.0535,-3.058,-3.062,-3.054,-3.0542,-3.0699,-3.0704,-3.0707,-3.0782,0,0,0,0,0,0,-3.0527,-3.0534,-3.056,-3.0553,-3.0558,-3.0617,-3.0556,-3.0551,-3.0561,-3.0555,-3.0552,-3.055,-3.053,-3.0576,-3.0583,-3.0622,-3.0544,-3.0696,-3.0701,-3.0706,-3.0776,-3.0789,-3.0799,0,0,0,0,0,-3.0525,-3.0581,-3.0561,-3.0567,-3.0589,-3.0619,-3.0622,-3.0598,-3.0565,-3.0591,-3.0581,-3.055,-3.0614,-3.0582,-3.0588,-3.0629,-3.0693,-3.07,-3.0706,-3.0771,-3.0786,-3.0799,0,0,0,0,0,0,-3.0593,-3.0579,-3.0558,-3.0613,-3.0618,-3.0609,-3.0641,-3.0614,-3.0629,-3.0622,-3.0591,-3.0591,-3.0642,-3.0639,-3.0604,-3.0695,-3.0648,-3.0656,-3.0695,-3.0709,-3.0721,-3.0721,-3.0546,0,0,0,0,0,-3.0614,-3.0639,-3.0626,-3.0676,-3.0679,-3.066,-3.0672,-3.0653,-3.0656,-3.0658,-3.0652,-3.0658,-3.0679,-3.0694,-3.0712,-3.0775,-3.0775,-3.0806,-3.0818,-3.0827,-3.0835,-3.0869,-3.0884,-3.073,-3.073,-3.073,0,0,-3.0658,-3.0654,-3.0672,-3.069,-3.0691,-3.0718,-3.0662,-3.0693,-3.0713,-3.0663,-3.0705,-3.0701,-3.0705,-3.076,-3.0783,-3.0759,-3.0877,-3.0835,-3.0843,-3.0846,-3.0877,-3.0892,-3.0905,-3.0734,-3.0733,-3.0733,0,0,-3.0754,-3.0753,-3.0795,-3.0797,-3.08,-3.0787,-3.0797,-3.0792,-3.0787,-3.0829,-3.0792,-3.0816,-3.0853,-3.0857,-3.0865,-3.0962,-3.0934,-3.0969,-3.1029,-3.1063,-3.1075,-3.1086,-3.1122,-3.1135,-3.0976,-3.0976,-3.0977,0,-3.081,-3.0849,-3.082,-3.0854,-3.0863,-3.0819,-3.0862,-3.0865,-3.0875,-3.0882,-3.0855,-3.0901,-3.09,-3.0956,-3.098,-3.0986,-3.0998,-3.097,-3.1076,-3.1086,-3.1096,-3.113,-3.1143,-3.0981,-3.098,-3.098,-3.0979,0,-3.0917,-3.0945,-3.0979,-3.0989,-3.1001,-3.104,-3.1018,-3.1034,-3.1014,-3.1003,-3.1047,-3.1045,-3.1063,-3.1074,-3.1054,-3.1127,-3.1112,-3.1081,-3.1033,-3.1115,-3.1147,-3.116,-3.0987,-3.0986,-3.0984,-3.0983,0,0,-3.1057,-3.105,-3.1064,-3.1068,-3.1067,-3.1088,-3.1125,-3.1142,-3.1157,-3.1165,-3.1195,-3.1228,-3.1199,-3.1207,-3.1187,-3.1217,-3.1296,-3.1181,-3.1181,-3.1204,-3.1378,-3.1403,-3.1419,-3.1276,-3.1279,-3.1281,-3.1378,0,-3.1152,-3.1213,-3.1189,-3.1253,-3.1279,-3.1237,-3.1269,-3.1272,-3.1263,-3.1284,-3.1274,-3.1299,-3.1257,-3.1262,-3.1289,-3.1281,-3.1331,-3.1273,-3.1306,-3.1308,-3.1308,-3.1435,-3.1462,-3.1554,-3.139,-3.1392,-3.1394,0,-3.1271,-3.1283,-3.135,-3.1345,-3.1355,-3.1384,-3.1399,-3.1419,-3.1422,-3.1413,-3.1423,-3.1397,-3.1433,-3.1384,-3.1434,-3.1395,-3.1407,-3.1404,-3.1407,-3.1411,-3.1357,-3.1444,-3.1583,-3.1597,-3.1413,-3.1411,-3.141,0,-3.1368,-3.1401,-3.1446,-3.145,-3.1446,-3.1468,-3.1467,-3.1467,-3.1479,-3.1492,-3.15,-3.1516,-3.1526,-3.1539,-3.1519,-3.1484,-3.1572,-3.1521,-3.1568,-3.1568,-3.159,-3.1589,-3.1734,-3.1594,-3.1594,-3.1594,-3.1593,0,-3.1478,-3.1521,-3.149,-3.1518,-3.1565,-3.1536,-3.1583,-3.1578,-3.1579,-3.1605,-3.1569,-3.1594,-3.1565,-3.1588,-3.1572,-3.1616,-3.162,-3.1616,-3.1611,-3.162,-3.1621,-3.1629,-3.1623,-3.1597,-3.1596,-3.1596,-3.1595,0,-3.1596,-3.1576,-3.1623,-3.1614,-3.1613,-3.1649,-3.1642,-3.1667,-3.1655,-3.1689,-3.1695,-3.1677,-3.1703,-3.1683,-3.1707,-3.1696,-3.1756,-3.1742,-3.1756,-3.1752,-3.1801,-3.1797,-3.1958,-3.1978,-3.1823,-3.1825,-3.1826,0,-3.1668,-3.17,-3.1695,-3.171,-3.1711,-3.1736,-3.1748,-3.172,-3.1735,-3.1741,-3.1766,-3.1788,-3.1805,-3.1847,-3.1836,-3.1855,-3.1842,-3.1897,-3.1845,-3.1853,-3.1845,-3.1845,-3.1848,-3.1908,-3.191,-3.1912,-3.1913,0,-3.1798,-3.1787,-3.1806,-3.1822,-3.1837,-3.1849,-3.1857,-3.1871,-3.1843,-3.1861,-3.1887,-3.1899,-3.1924,-3.1947,-3.1962,-3.1962,-3.1934,-3.1929,-3.1941,-3.1952,-3.1959,-3.1958,-3.1787,-3.1926,-3.1925,-3.1924,-3.1923,-3.1922,-3.1897,-3.1924,-3.1925,-3.1947,-3.1951,-3.1959,-3.1983,-3.1974,-3.1995,-3.2013,-3.1995,-3.2026,-3.2029,-3.2046,-3.2049,-3.2073,-3.2051,-3.2068,-3.2073,-3.2078,-3.2086,-3.1953,-3.2076,-3.2075,-3.2075,-3.2075,-3.2074,0,-3.2027,-3.2026,-3.2046,-3.2059,-3.2077,-3.2047,-3.2055,-3.2072,-3.21,-3.2104,-3.2121,-3.2151,-3.2172,-3.2163,-3.2183,-3.2204,-3.2192,-3.221,-3.221,-3.221,-3.2104,-3.2092,-3.222,-3.222,-3.222,-3.222,-3.222,-3.222,-3.2098,-3.2142,-3.2131,-3.2177,-3.2175,-3.2205,-3.2212,-3.222,-3.2224,-3.2258,-3.2276,-3.227,-3.2269,-3.2288,-3.2307,-3.2304,-3.2314,-3.2338,-3.233,-3.2232,-3.2217,-3.2204,-3.2193,-3.234,-3.234,-3.2435,-3.2436,-3.2436]},{"header":{"parameterUnit":"m.s-1","parameterCategory":1,"la1":30.2991,"la2":30.254,"lo1":-89.0895,"lo2":-89.0444,"dy":0.0017,"dx":0.0017,"nx":28,"ny":28,"refTime":"2025-01-14T03:00:00:Z","depth":0,"parameterNumber":3,"parameterNumberName":"V-component_of_WINDS"},"data":[0,0,0,0,0,0,0,0,0,0,0,0,0,0,0,0,0,0,0,0,0,0,0,0,0,0,0,0,0,0,0,0,0,0,0,0,0,0,0,0,0,0,0,0,0,0,0,0,0,0,0,0,0,0,0,0,0,0,-3.7122,-3.7122,0,-3.714,-3.714,-3.714,-3.7091,-3.7089,-3.7087,-3.7086,-3.7103,-3.7104,-3.7106,0,0,0,0,0,0,0,0,0,0,0,0,0,-3.7042,-3.7044,-3.7122,-3.7122,-3.7122,-3.714,-3.714,-3.714,-3.7091,-3.7089,-3.7087,-3.7085,-3.7102,-3.7104,-3.7106,0,0,0,0,0,0,0,0,0,0,0,0,0,-3.707,-3.7045,-3.7122,-3.71,-3.7098,-3.714,-3.714,-3.714,-3.7091,-3.7089,-3.7087,-3.7084,-3.7101,-3.7104,-3.7107,-3.717,0,0,-3.7115,-3.7117,0,0,0,0,0,0,0,0,-3.7069,-3.7073,-3.7103,-3.7101,-3.7099,-3.7111,-3.7118,-3.715,-3.7092,-3.7094,-3.7086,-3.7083,-3.7107,-3.7109,-3.7118,-3.7171,-3.7171,-3.7116,-3.7117,-3.7118,-3.7119,0,0,0,0,0,0,0,-3.7067,-3.7072,-3.7129,-3.7103,-3.7101,-3.7088,-3.709,-3.7124,-3.7113,-3.7093,-3.709,-3.7093,-3.7106,-3.7115,-3.7118,-3.7172,-3.7115,-3.7118,-3.712,-3.7121,-3.7278,-3.728,0,0,0,0,0,0,-3.7068,-3.7071,-3.7128,-3.7129,-3.7078,-3.7092,-3.7093,-3.7109,-3.7112,-3.7111,-3.7095,-3.709,-3.7111,-3.7114,-3.7118,-3.7193,-3.7118,-3.7121,-3.7123,-3.7275,-3.7278,-3.7281,0,0,0,0,0,0,-3.7067,-3.7074,-3.7127,-3.7099,-3.7105,-3.7095,-3.7114,-3.7111,-3.712,-3.7113,-3.7111,-3.7106,-3.711,-3.7114,-3.7158,-3.7193,-3.7122,-3.7125,-3.7272,-3.7276,-3.728,-3.7343,0,0,0,0,0,0,-3.7065,-3.7074,-3.7098,-3.71,-3.7107,-3.7168,-3.7116,-3.7113,-3.7125,-3.712,-3.7124,-3.7122,-3.7108,-3.7154,-3.716,-3.7195,-3.7127,-3.7269,-3.7274,-3.7279,-3.7338,-3.7348,-3.7358,0,0,0,0,0,-3.7062,-3.7115,-3.71,-3.7107,-3.7137,-3.717,-3.7174,-3.7157,-3.7128,-3.7153,-3.7148,-3.7122,-3.7187,-3.7159,-3.7166,-3.7202,-3.7267,-3.7273,-3.7278,-3.7333,-3.7346,-3.7357,0,0,0,0,0,0,-3.7116,-3.7115,-3.7098,-3.7153,-3.7162,-3.7162,-3.7192,-3.7171,-3.7188,-3.7182,-3.716,-3.7161,-3.7209,-3.7209,-3.7177,-3.7263,-3.7222,-3.723,-3.7262,-3.7274,-3.7284,-3.7283,-3.7129,0,0,0,0,0,-3.7135,-3.7162,-3.7159,-3.7207,-3.7213,-3.7202,-3.7215,-3.7201,-3.721,-3.7213,-3.7212,-3.7221,-3.7243,-3.7258,-3.7278,-3.7337,-3.7337,-3.7365,-3.7375,-3.7383,-3.739,-3.7422,-3.7435,-3.73,-3.7299,-3.7299,0,0,-3.7173,-3.7175,-3.7194,-3.7218,-3.7224,-3.7252,-3.7205,-3.7237,-3.7258,-3.7218,-3.726,-3.7259,-3.7267,-3.7318,-3.7341,-3.732,-3.7428,-3.7391,-3.7397,-3.74,-3.7429,-3.7442,-3.7453,-3.7303,-3.7303,-3.7302,0,0,-3.7258,-3.7262,-3.7304,-3.731,-3.7319,-3.7311,-3.7321,-3.7324,-3.7322,-3.7364,-3.7334,-3.7358,-3.7397,-3.7404,-3.7413,-3.75,-3.7477,-3.7507,-3.7559,-3.759,-3.7601,-3.761,-3.7642,-3.7654,-3.7513,-3.7514,-3.7514,0,-3.7304,-3.7346,-3.7327,-3.7362,-3.7373,-3.7339,-3.7381,-3.7387,-3.7402,-3.7411,-3.7387,-3.7436,-3.7439,-3.7492,-3.7513,-3.7521,-3.7532,-3.7507,-3.7601,-3.761,-3.7619,-3.7649,-3.7661,-3.7517,-3.7517,-3.7517,-3.7516,0,-3.7403,-3.7433,-3.7465,-3.7482,-3.7497,-3.7535,-3.7521,-3.7538,-3.7523,-3.7517,-3.756,-3.7562,-3.7582,-3.7593,-3.7578,-3.7644,-3.7631,-3.7605,-3.7563,-3.7636,-3.7664,-3.7675,-3.7523,-3.7521,-3.752,-3.7519,0,0,-3.7524,-3.7529,-3.7542,-3.7549,-3.7556,-3.7578,-3.7614,-3.7635,-3.765,-3.7661,-3.7691,-3.7725,-3.77,-3.771,-3.7695,-3.7722,-3.7792,-3.7692,-3.7692,-3.7712,-3.7866,-3.7887,-3.7901,-3.7776,-3.7778,-3.778,-3.7866,0,-3.7608,-3.7671,-3.7655,-3.7717,-3.7745,-3.7712,-3.7743,-3.775,-3.7746,-3.7768,-3.7762,-3.7787,-3.7752,-3.7758,-3.7783,-3.7778,-3.7823,-3.7772,-3.7804,-3.7805,-3.7805,-3.7915,-3.7938,-3.8019,-3.7876,-3.7878,-3.788,0,-3.7716,-3.7732,-3.7798,-3.7801,-3.7811,-3.784,-3.7858,-3.7879,-3.7886,-3.7881,-3.7892,-3.7872,-3.7907,-3.7864,-3.7912,-3.7877,-3.7889,-3.7889,-3.7891,-3.7895,-3.7848,-3.7923,-3.8044,-3.8057,-3.7896,-3.7895,-3.7894,0,-3.7799,-3.7837,-3.7881,-3.7888,-3.7892,-3.7913,-3.7916,-3.7921,-3.7935,-3.7949,-3.7958,-3.7976,-3.7987,-3.8001,-3.7986,-3.7956,-3.8036,-3.7992,-3.8033,-3.8034,-3.8053,-3.8052,-3.8179,-3.8058,-3.8058,-3.8058,-3.8058,0,-3.7896,-3.7937,-3.7918,-3.7946,-3.7991,-3.7971,-3.8017,-3.8015,-3.802,-3.8046,-3.8018,-3.8043,-3.8021,-3.8044,-3.8032,-3.8074,-3.8078,-3.8075,-3.8072,-3.8079,-3.8079,-3.8087,-3.8082,-3.8061,-3.806,-3.806,-3.8059,0,-3.7997,-3.7986,-3.8032,-3.8032,-3.8033,-3.8067,-3.8067,-3.8092,-3.8085,-3.8118,-3.8125,-3.8114,-3.8139,-3.8126,-3.8151,-3.8143,-3.8198,-3.8186,-3.8196,-3.8194,-3.8236,-3.8233,-3.8373,-3.8391,-3.8258,-3.8259,-3.826,0,-3.806,-3.8091,-3.8095,-3.8111,-3.8116,-3.8142,-3.8156,-3.8137,-3.8152,-3.8163,-3.8187,-3.821,-3.8228,-3.8269,-3.8264,-3.8283,-3.8272,-3.832,-3.8275,-3.8281,-3.8275,-3.8274,-3.8277,-3.833,-3.8332,-3.8333,-3.8334,0,-3.8174,-3.8167,-3.8189,-3.8208,-3.8226,-3.824,-3.8252,-3.8266,-3.8247,-3.8266,-3.8292,-3.8306,-3.8333,-3.8356,-3.8373,-3.8374,-3.8352,-3.8348,-3.8359,-3.8367,-3.8372,-3.8371,-3.8223,-3.8345,-3.8344,-3.8343,-3.8343,-3.8342,-3.8259,-3.8286,-3.8293,-3.8318,-3.8325,-3.8336,-3.836,-3.8357,-3.8378,-3.8399,-3.8386,-3.8417,-3.8423,-3.8444,-3.8448,-3.8472,-3.8453,-3.8468,-3.8472,-3.8476,-3.8483,-3.8367,-3.8474,-3.8474,-3.8474,-3.8473,-3.8473,0,-3.8373,-3.8376,-3.8399,-3.8417,-3.8436,-3.8413,-3.8424,-3.8442,-3.847,-3.8478,-3.8496,-3.8526,-3.8549,-3.8544,-3.8564,-3.8584,-3.8574,-3.859,-3.8589,-3.859,-3.8498,-3.8488,-3.8598,-3.8598,-3.8598,-3.8598,-3.8598,-3.8598,-3.8435,-3.8479,-3.8473,-3.852,-3.8522,-3.8553,-3.8561,-3.8572,-3.8578,-3.8614,-3.8632,-3.8629,-3.8633,-3.8653,-3.8672,-3.867,-3.868,-3.87,-3.8694,-3.8609,-3.8597,-3.8585,-3.8575,-3.8702,-3.8702,-3.8784,-3.8785,-3.8786]}]]